Simultaneous Nadir Overpasses (SNOs) Predictions

Prediction of SNOs between GOES-14 and AQUA Satellite Orbit:

Table of predicted SNOs for the next 14.0 days since TLE Epoch: 4/10/2020
Index Date Time (GOES-14) GOES-14 Lat,Lon AQUA Lat,Lon Distance(km) Time Diff (sec)
1 04/11/2020 20:30:21 -0.13,-104.12 -0.08,-103.96 18.81 80
2 04/13/2020 20:18:09 -0.14,-104.13 0.51,-101.00 355.14 80
3 04/14/2020 08:39:25 0.13,-104.14 0.55,-106.16 230.28 80
4 04/16/2020 08:29:53 0.14,-104.14 -0.05,-103.20 106.71 80
5 04/16/2020 20:51:17 -0.13,-104.15 -1.00,-108.40 482.78 80
6 04/18/2020 08:17:41 0.14,-104.15 -0.66,-100.24 444.19 80
7 04/18/2020 20:39:06 -0.13,-104.16 -0.39,-105.44 145.64 80
8 04/20/2020 20:24:14 -0.14,-104.17 0.22,-102.48 191.67 80
9 04/21/2020 08:45:28 0.13,-104.15 0.90,-107.64 396.44 80
10 04/23/2020 08:33:17 0.13,-104.17 0.22,-104.69 58.66 80




NCC Satellite Simultaneous Nadir Overpasses (SNOs) Prediction Service
